{"data":{"norad_id":61587,"epoch":"2026-05-25T03:44:14.169120Z","epoch_age_seconds":51740,"freshness":"FRESH","line1":"1 61587U 24187P   26145.15571955  .00012890  00000+0  39191-3 0  9990","line2":"2 61587  53.1585  68.9477 0001099  92.0113 268.1015 15.34404504 90745","mean_motion":15.34404504,"eccentricity":0.0001099,"inclination_deg":53.1585,"raan_deg":68.9477,"arg_perigee_deg":92.0113,"mean_anomaly_deg":268.1015,"bstar":0.00039191,"rev_number":9074,"period_min":93.84748260619,"perigee_km":461.93804653149,"apogee_km":463.44166027386,"semimajor_km":6840.8268534027,"source":"CELESTRAK","updated_at":"2026-05-25T13:38:19.404550Z"}}